7 * 24
多渠道服务支持
NAVSTAR 37(USA 117)是美国空军运营的GPS III卫星系列中的一颗,于1998年12月16日由Delta II火箭从卡纳维拉尔角发射升空。该卫星属于第二代GPS卫星,旨在提高定位、导航和授时的精度与可靠性。它运行在中地球轨道,设计寿命为7.5至10年,配备更先进的原子钟和抗干扰技术,以增强军事和民用用户的导航能力。NAVSTAR 37在GPS星座中发挥关键作用,支持全球范围内的定位服务。
美国
(US)
| 数据来源 | 国际轨道数据 |
| 星历时间: | 2026-03-02T03:18:27+0800 1天前 查看轨道信息 |
| 半长轴: | 27098.43km |
| 偏心率: | 0.0008949 |
| 轨道倾角: | 52.898° |
| 近地点辐角 | 23.850° |
| 升交点赤经 | 269.445° |
| 平近点角 | 153.792° |
| 近地点: | 20696.042km |
| 远地点: | 20744.544km |
| 周期: | 739.905分钟 |
| 每日圈数: | 1.946196 |